Weather in San Carlos

Mexico     27°56′43″N   111°03′13″W
temp.,
°C
wind,
m/s
gust,
m/s
humid.,
%
clouds,
%
prec.,
mm/h
press.,
hPa
HPBL,
m
11 may, tue
tue1123:00+23se11540 0.0 101015
02:00+22n11520 0.0 100911
05:00+21e11540 0.0 101011
08:00+25ese11420 0.0 1011274
11:00+28s43330 0.0 1011890
14:00+28sw54320 0.0 1009768
17:00+29sw44260 0.0 1008605
20:00+26wsw22340 0.0 100926
12 may, wed
wed1223:00+24w11350 0.0 101111
02:00+24nnw22300 0.0 101111
05:00+22ne22280 0.0 101211
08:00+27ene11240 0.0 1014209
11:00+30ssw32180 0.0 1014976
14:00+30sw54210 0.0 1012769
17:00+31wsw33180 0.0 1011620
20:00+27w22220 0.0 101221
13 may, thu
thu1323:00+26nw22195 0.0 101313
02:00+25nnw3322100 0.0 101214
05:00+24n3322100 0.0 101217
08:00+29n2217100 0.0 1013154
11:00+32w331534 0.0 1013827
14:00+34w651872 0.0 10101245
17:00+33wnw5618100 0.0 1009561
20:00+31nw3318100 0.0 100925
14 may, fri
fri1423:00+28nw3320100 0.0 101015
02:00+26wnw332535 0.0 101024
05:00+25nnw222976 0.0 101015
08:00+29wsw112210 0.0 1011188
11:00+32wsw451789 0.0 1011749
14:00+32sw562140 0.0 1010750
17:00+30sw562394 0.0 1009524
20:00+27sw123061 0.0 100921
15 may, sat
sat1523:00+26nw333017 0.0 101022
02:00+24nw3336100 0.0 101020
05:00+23nw223827 0.0 101019
08:00+27nw222110 0.0 1011247
11:00+30sw442072 0.0 1011940
14:00+29sw552692 0.0 1010742
17:00+28ssw442693 0.0 1009496
20:00+25sse11408 0.0 101023